Tegucigalpa, Honduras

9:48 PM CST en Septiembre 20, 2018 (GMT -0600)
Toncontin International

Tiempo Historia de MHTG - Julio, 2018

Change the Weather History Date:

Jueves, Julio 12, 2018

  Actual Average Record
Temperature  
Temperatura media 72 ° F -  
Temperatura máxima 78 ° F 80 ° F 86 ° F (1996)
Temperatura mínima 65 ° F 63 ° F 62 ° F (2001)
Cooling Degree Days 6    
Growing Degree Days 22 (Base 50)    
Moisture  
Punto de rocío 65 ° F    
Average Humidity 83    
Maximum Humidity 100    
Minimum Humidity 55    
Precipitación  
Precipitación 0.00 pul 0.11 pul - ()
Presión al nivel del mar  
Presión al nivel del mar 30.07 pul    
Viento  
Velocidad del viento 7 mph ()    
Velocidad máxima del viento 16 mph    
Max Gust Speed -    
Visibilidad 5.2 Millas    
Eventos Lluvia    
Averages and records for this station are not official NWS values.
T = Trace of Precipitation, MM = Missing Value Source: Averaged Metar Reports

Daily Weather History Graph

Daily Weather History Graph

Search for Another Location

Airport or City:

Astronomía

Jul. 12, 2018 Salida Puesta
Hora real 5:27 AM CST 6:21 PM CST
Crepúsculo civil 5:04 AM CST 6:44 PM CST
Crepúsculo náutico 4:36 AM CST 7:11 PM CST
Crepúsculo astronómico 4:09 AM CST 7:39 PM CST
Luna 4:52 AM CST (7/12) 6:07 PM CST (7/12)
Horas de luz 13h 40m
Horas de luz
12h 53m
Creciente menguante, 0% of the Moon is Illuminated
Jul 12
Creciente menguante
Jul 12
Nueva
Jul 19
Cuarto creciente
Jul 27
Luna llena
Ago 4
Cuarto menguante

Hourly Weather History & Observations

Hora (CST) Temp. Punto de rocío Humedad Presión Visibilidad Wind Dir Velocidad del viento Velocidad de ráfagas Precip Eventos Condiciones
12:00 AM 67 ° F 65 ° F 92% 30.03 pul 6 mi Norte 8.1 mph - -   Bruma
12:00 AM 68.0 ° F 66.2 ° F 94% 30.12 pul 6.2 mi Norte 8.1 mph - N/A   Muy nublado
1:00 AM 68.0 ° F 64.4 ° F 88% 30.09 pul 6.2 mi Norte 11.5 mph - N/A   Muy nublado
2:00 AM 66.2 ° F 64.4 ° F 94% 30.09 pul 6.2 mi NE 6.9 mph - N/A   Muy nublado
3:00 AM 66 ° F 64 ° F 93% 29.99 pul 5 mi Sin viento Sin viento - -   Bruma
3:00 AM 66.2 ° F 64.4 ° F 94% 30.06 pul 5.0 mi Sin viento Sin viento - N/A   Muy nublado
4:00 AM 66.2 ° F 64.4 ° F 94% 30.06 pul 6.2 mi NE 6.9 mph - N/A   Muy nublado
5:00 AM 66.2 ° F 64.4 ° F 94% 30.06 pul 4.3 mi Norte 6.9 mph - N/A   Muy nublado
6:00 AM 66 ° F 64 ° F 90% 30.00 pul 4 mi Norte 4.6 mph - -   Muy nublado
6:00 AM 66.2 ° F 64.4 ° F 94% 30.09 pul 3.7 mi Norte 4.6 mph - N/A   Muy nublado
7:00 AM 66.2 ° F 64.4 ° F 94% 30.09 pul 3.7 mi NNE 9.2 mph - N/A   Muy nublado
8:00 AM 69.8 ° F 64.4 ° F 83% 30.12 pul 3.7 mi Norte 16.1 mph - N/A   Muy nublado
9:00 AM 71 ° F 65 ° F 76% 30.02 pul 4 mi Norte 11.5 mph - -   Bruma
9:00 AM 71.6 ° F 64.4 ° F 78% 30.12 pul 3.7 mi NO 11.5 mph - N/A   Nubes dispersas
10:00 AM 73.4 ° F 64.4 ° F 73% 30.12 pul 6.2 mi Norte 13.8 mph - N/A   Muy nublado
11:00 AM 75.2 ° F 64.4 ° F 69% 30.12 pul 6.2 mi Norte 11.5 mph - N/A   Muy nublado
11:25 AM 73.4 ° F 64.4 ° F 73% 30.12 pul 6.2 mi NNO 4.6 mph - N/A   Muy nublado
12:00 PM 74 ° F 63 ° F 60% 29.97 pul 5 mi NE 6.9 mph - -   Muy nublado
12:00 PM 75.2 ° F 62.6 ° F 65% 30.12 pul 5.0 mi NE 6.9 mph - N/A   Muy nublado
1:00 PM 75.2 ° F 66.2 ° F 73% 30.09 pul 6.2 mi Norte 9.2 mph - N/A   Muy nublado
2:00 PM 78.8 ° F 64.4 ° F 61% 30.06 pul 6.2 mi NNO 13.8 mph - N/A   Nubes dispersas
2:37 PM - - N/A% 30.06 pul 6.2 mi NNE 16.1 mph - N/A Lluvia Lluvia débil
3:00 PM 76 ° F 63 ° F 55% 29.91 pul 5 mi Norte 11.5 mph - -   Muy nublado
3:00 PM 75.2 ° F 62.6 ° F 65% 30.06 pul 5.0 mi Norte 11.5 mph - N/A   Nubes dispersas
4:00 PM 71.6 ° F 66.2 ° F 83% 30.06 pul 5.0 mi Sin viento Sin viento - N/A Lluvia Lluvia débil
4:07 PM 69.8 ° F 64.4 ° F 83% 30.09 pul 1.9 mi NE 6.9 mph - N/A Lluvia Lluvia
4:33 PM 68.0 ° F 66.2 ° F 94% 30.06 pul 5.0 mi ENE 4.6 mph - N/A Lluvia Lluvia débil
5:00 PM 69.8 ° F 66.2 ° F 88% 30.06 pul 5.0 mi Norte 5.8 mph - N/A Lluvia Lluvia débil
6:00 PM 68.0 ° F 64.4 ° F 88% 30.09 pul 5.0 mi Norte 11.5 mph - N/A   Muy nublado
6:17 PM 77.0 ° F 77.0 ° F 100% 29.95 pul 3.7 mi NNE 5.8 mph - N/A Lluvia Lluvia débil
7:00 PM 68.0 ° F 64.4 ° F 88% 30.12 pul 5.0 mi Norte 9.2 mph - N/A   Muy nublado
8:00 PM 68.0 ° F 64.4 ° F 88% 30.12 pul 6.2 mi NNO 4.6 mph - N/A   Nubes dispersas
9:00 PM 68 ° F 64 ° F 83% 30.06 pul 6 mi Norte 4.6 mph - -   Bruma
9:00 PM 68.0 ° F 64.4 ° F 88% 30.15 pul 6.2 mi Norte 4.6 mph - N/A   Nubes dispersas
10:00 PM 68.0 ° F 64.4 ° F 88% 30.15 pul 6.2 mi NE 4.6 mph - N/A   Nubes dispersas
11:00 PM 71.6 ° F 62.6 ° F 73% 30.15 pul 6.2 mi NE 6.9 mph - N/A   Muy nublado